Temp
18 18 18 18 18 19 19 19 20 20 20 20 20 20 20 21 21 21 21 22 22 22 22 22 22 23 23 23 23 24 24 24 25 23 23 24 24 24 24 25 25 24 24 24 23 23 22 22 22 22 23 22 20 20 21 20 20 22 22 21 21 21 21 22 23 22 22 23 24 24 23 22 24 24 23 22 23 24 23 23 23 22 22 23 24 22 21 22
18 18 18 18 18 18 19 19 19 19 20 20 20 20 20 20 21 21 21 21 22 22 22 22 22 23 23 23 23 23 24 24 24 23 24 24 24 24 24 24 24 24 24 23 23 23 23 22 21 21 22 22 20 21 21 20 21 22 21 20 21 21 22 22 23 23 22 23 23 23 22 21 23 23 22 23 24 23 23 23 23 23 24 23 23 23 22 21
18 18 18 18 18 19 19 19 19 19 20 20 20 20 20 20 21 21 21 21 21 22 22 22 22 22 23 23 23 23 23 24 24 24 25 24 24 24 24 25 24 24 24 23 23 23 24 23 22 22 22 22 20 20 22 21 21 21 20 21 22 22 22 21 22 23 22 22 22 23 21 21 22 21 22 23 23 23 23 23 23 24 25 24 23 22 22 21
19 19 18 18 18 18 19 19 19 19 19 20 20 20 20 20 20 20 21 21 21 21 22 22 22 22 22 22 23 23 23 24 24 25 25 24 25 25 25 25 24 24 23 23 23 23 23 22 21 22 22 22 20 19 22 21 21 20 20 23 22 20 21 23 23 22 21 21 21 22 21 21 22 20 22 23 23 23 23 23 23 24 24 24 23 21 21 20
19 19 18 18 18 18 18 18 19 19 19 19 19 20 20 20 20 20 20 21 21 21 21 22 22 22 22 22 22 23 23 24 25 25 25 24 25 25 25 24 24 23 23 23 23 22 22 21 21 21 22 22 21 21 22 20 20 21 20 22 21 19 21 24 23 22 21 20 21 21 21 22 22 21 22 22 22 23 24 24 23 23 22 22 22 20 19 18
19 19 18 17 17 18 18 18 18 18 18 19 19 19 19 20 20 20 20 20 20 21 21 21 22 22 22 22 22 23 23 24 25 25 25 24 25 25 24 24 24 23 23 22 22 22 22 21 21 22 21 21 21 22 21 19 20 21 21 21 21 20 21 22 22 22 21 20 21 21 21 20 21 22 22 22 22 23 24 24 23 21 20 20 19 19 19 19
19 19 17 17 17 17 17 17 17 18 18 18 19 19 19 19 19 20 20 20 20 21 21 21 22 22 22 21 21 22 22 23 25 24 24 24 24 24 24 24 23 23 22 22 22 22 22 22 22 21 21 22 21 21 21 20 20 21 21 21 21 20 20 22 21 21 20 20 21 20 19 20 21 22 21 22 22 23 23 23 21 19 18 18 19 19 19 17
18 18 17 16 16 17 17 17 17 18 18 18 18 19 19 19 19 20 20 20 20 21 21 21 21 21 21 21 21 21 21 23 24 24 24 24 23 23 23 23 23 23 22 22 22 21 21 22 22 20 21 22 21 21 20 20 21 20 21 21 21 20 21 21 20 21 20 20 20 19 20 21 21 21 21 22 23 22 22 21 20 18 18 18 18 18 15 14
17 18 17 16 16 17 17 17 17 17 18 18 18 18 18 19 19 19 19 20 20 20 20 20 21 21 21 20 20 21 22 23 24 23 23 23 23 23 23 23 23 23 22 21 21 21 21 22 22 21 22 21 20 21 20 21 22 20 21 21 21 21 21 21 21 21 20 20 20 20 21 21 20 20 21 23 24 21 21 21 20 20 20 18 16 14 13 12
14 16 17 16 16 16 16 17 17 17 17 18 18 18 18 18 18 19 19 19 19 20 20 20 20 20 20 20 20 21 23 23 23 23 23 23 22 22 22 23 22 22 22 21 21 21 21 22 20 20 21 21 20 20 20 21 21 20 20 20 20 20 19 20 21 21 20 20 20 20 22 21 19 20 23 25 23 20 21 22 20 20 20 17 14 12 11 11
11 14 16 16 16 16 16 16 17 17 17 17 17 17 17 18 18 18 19 19 19 19 20 20 20 20 20 20 20 22 22 22 22 22 22 22 22 22 22 22 22 22 21 20 20 21 21 21 20 19 21 21 20 20 20 20 20 19 20 20 20 20 20 20 21 21 20 21 20 20 22 21 19 20 24 25 22 20 21 21 19 20 20 16 13 11 10 10
10 12 15 16 15 15 16 16 16 16 16 16 16 17 17 18 18 18 18 19 19 19 19 19 19 19 19 19 20 22 22 22 22 22 22 22 22 22 22 22 22 22 21 20 20 21 21 21 21 21 22 21 20 20 20 19 19 19 19 20 21 20 21 22 21 20 20 21 20 20 22 22 20 22 25 24 20 20 21 20 19 19 17 14 12 10 10 9
11 12 14 15 15 15 15 15 15 15 15 16 16 16 17 17 18 18 18 18 19 19 19 19 19 18 19 20 21 21 22 21 21 21 21 22 21 21 21 21 21 21 21 21 20 21 21 21 21 21 21 21 21 20 20 19 19 20 19 20 20 20 21 22 20 19 20 21 20 20 21 23 23 24 25 21 19 21 22 20 19 18 15 12 11 10 10 9
12 13 14 14 14 15 14 14 14 14 15 15 15 16 16 17 17 18 18 18 18 19 19 19 18 18 18 20 21 21 21 21 20 21 21 21 21 21 21 21 20 20 20 21 21 21 21 21 21 20 19 20 20 20 19 19 19 20 19 19 18 19 21 22 20 19 21 20 19 21 20 22 24 25 25 20 18 21 21 20 19 16 13 11 11 10 9 9
12 13 13 14 14 14 14 14 14 14 14 15 15 16 16 17 17 17 18 18 18 19 19 18 17 17 18 20 21 20 20 20 20 20 20 20 20 20 20 20 20 20 20 20 21 21 21 21 21 20 20 19 20 20 20 19 19 19 19 19 18 18 20 21 20 19 22 20 18 21 21 21 23 24 24 20 18 20 20 19 18 15 12 10 10 9 9 8
11 12 13 14 14 13 13 13 13 14 14 15 15 16 16 17 17 17 17 17 17 18 17 17 16 17 18 20 20 20 19 19 20 20 19 19 20 20 19 19 19 19 20 20 20 21 21 21 19 19 19 19 19 20 19 19 19 18 18 20 19 18 19 20 21 19 20 21 20 20 21 21 22 23 24 21 18 20 20 19 16 12 10 9 9 8 8 8
11 12 13 14 13 12 13 13 13 13 14 15 15 15 16 16 16 16 16 16 17 16 16 16 16 17 19 20 20 20 19 19 20 19 19 19 19 19 19 18 18 18 19 19 20 20 20 20 18 18 19 18 18 19 19 18 19 18 17 18 18 18 18 19 21 19 19 20 20 20 20 21 22 23 23 20 18 19 19 18 14 10 10 9 8 8 7 7
12 12 12 12 12 12 13 13 13 13 14 14 15 15 15 15 15 15 16 16 16 16 16 16 16 18 20 19 19 20 19 19 19 18 18 19 18 19 19 18 17 18 19 19 19 19 18 18 18 19 19 17 18 19 19 19 20 20 19 18 18 18 18 18 20 20 19 20 20 20 19 20 21 21 21 19 17 18 17 14 11 10 9 8 8 7 7 7
12 11 11 11 12 12 13 13 13 13 14 14 15 15 15 14 14 15 15 15 16 18 18 17 17 20 20 19 19 19 18 19 19 18 18 18 18 19 19 18 17 18 19 19 19 18 18 18 18 19 19 18 18 19 19 20 20 20 20 19 19 18 18 18 18 19 19 19 19 19 19 19 20 21 20 16 15 15 13 11 10 9 9 8 8 7 7 7
12 11 11 11 12 12 13 13 13 13 13 14 14 14 15 16 16 16 14 14 16 18 19 18 18 19 20 19 18 18 18 18 18 18 18 18 19 19 18 18 18 19 19 19 19 17 17 18 18 19 19 19 19 19 19 19 19 19 18 18 18 17 18 18 18 18 18 18 19 19 19 19 20 20 16 13 14 13 11 11 10 9 8 8 8 7 7 7
12 11 11 12 12 12 12 12 13 13 13 14 14 14 16 17 18 18 16 16 16 15 17 17 17 18 19 19 18 18 19 19 18 17 17 18 19 19 18 18 18 18 17 17 17 17 17 17 18 19 20 19 18 18 18 18 18 18 18 18 17 16 17 17 18 18 17 18 19 18 18 19 20 18 13 11 13 12 10 10 9 8 8 8 7 7 7 7
12 12 12 12 12 12 12 13 13 13 13 13 13 14 15 15 16 17 16 18 17 14 15 15 15 17 18 17 18 19 19 19 18 17 17 18 18 19 18 17 18 18 16 16 17 17 16 16 18 19 19 18 17 17 17 17 17 17 17 16 17 16 16 18 18 17 16 18 19 18 18 19 19 15 11 10 10 9 8 9 8 8 8 7 7 7 7 7
12 12 12 12 12 13 12 13 13 13 13 13 14 14 14 15 16 16 16 18 18 16 15 16 16 17 17 17 18 18 18 18 18 17 17 18 18 18 18 17 18 17 16 17 17 17 16 17 18 18 17 17 17 17 16 16 16 16 16 16 16 16 17 18 18 17 16 17 18 18 17 19 18 13 11 10 9 8 8 8 7 7 7 6 6 6 6 6
12 12 12 12 12 12 12 12 13 13 13 14 15 15 15 16 15 15 16 17 16 16 16 16 16 17 17 17 17 18 17 17 18 18 17 18 18 17 17 18 17 17 16 17 17 17 17 18 18 17 16 16 17 17 16 16 16 16 16 16 16 17 17 18 17 17 17 16 16 17 18 18 18 16 13 11 10 9 8 8 8 7 7 7 6 6 6 5
12 12 12 12 12 12 12 12 13 14 14 14 15 15 15 16 15 16 17 17 16 16 16 16 15 16 17 17 17 17 17 17 17 16 16 17 18 17 17 17 17 17 16 16 16 16 17 17 17 17 16 16 16 17 16 16 16 16 17 17 17 17 17 17 16 16 17 17 16 16 19 19 18 17 14 11 10 9 8 8 7 7 7 7 6 6 6 5
12 12 12 12 12 12 12 13 13 14 14 14 15 15 15 15 15 16 17 17 16 17 16 17 17 17 17 16 16 17 18 17 16 15 16 17 17 17 17 16 16 17 16 15 15 16 16 16 16 17 17 16 16 16 16 16 16 17 17 17 17 16 16 16 16 17 18 18 15 15 18 18 18 19 15 11 10 9 8 8 7 7 7 6 6 6 5 5
12 12 12 12 12 12 12 13 13 13 14 15 15 15 15 15 15 15 17 17 17 18 17 16 16 17 17 15 15 17 18 17 15 15 16 16 17 17 17 16 16 16 16 16 16 17 16 16 16 16 16 16 16 16 16 16 17 18 16 16 17 16 16 16 16 17 17 16 15 15 17 16 16 18 15 11 11 9 8 8 7 7 7 6 6 6 5 5
12 12 12 12 12 12 12 13 13 13 14 15 15 14 15 15 15 16 17 17 18 19 18 16 16 16 16 14 15 17 16 16 16 16 15 16 17 17 17 17 17 17 16 16 17 16 15 16 17 16 16 16 16 17 16 16 18 18 14 14 16 16 16 16 16 17 15 15 16 16 16 16 16 16 13 11 13 11 9 8 7 7 7 6 6 6 5 5
12 12 12 12 11 12 12 12 12 13 14 14 14 14 15 14 15 16 17 17 19 19 17 17 16 16 16 15 15 16 15 15 16 15 14 16 16 16 16 16 17 17 15 15 17 17 15 16 16 16 16 16 17 16 15 17 18 15 13 14 15 14 15 15 16 16 15 14 16 16 16 16 17 17 14 13 15 13 10 8 8 7 7 7 6 6 6 5
12 12 12 11 12 12 12 12 12 13 14 14 14 14 14 15 16 16 15 16 19 19 17 17 16 16 16 16 15 15 16 15 15 15 15 16 16 16 15 14 16 17 15 15 16 16 15 14 14 16 17 16 16 14 12 14 15 14 14 16 16 15 14 14 14 15 16 15 16 16 16 16 17 17 15 14 14 12 10 8 8 7 7 7 6 6 6 5
12 12 12 11 12 12 12 12 12 13 13 13 13 13 14 15 16 16 16 17 19 18 17 16 15 15 16 16 16 15 16 15 14 15 16 15 15 16 15 15 16 16 16 16 16 15 15 15 15 16 15 15 16 14 12 12 12 14 17 17 17 16 15 15 14 15 15 16 16 14 14 15 16 17 15 12 10 9 10 9 8 7 7 7 7 6 6 5
12 12 12 11 12 12 12 13 13 13 13 13 13 13 15 15 15 15 16 18 19 18 17 17 15 15 16 16 16 15 15 16 15 15 15 14 15 15 15 16 16 16 16 16 16 16 16 16 15 15 15 15 17 17 14 13 14 15 17 17 17 16 16 16 16 15 15 16 14 12 13 14 16 16 13 10 9 8 9 9 8 8 7 7 7 6 6 5
12 13 12 11 12 12 12 13 13 13 12 12 13 13 15 15 15 16 17 18 19 17 17 17 15 15 16 16 17 15 15 16 15 15 15 14 14 15 15 15 15 17 17 15 15 16 17 16 14 15 16 15 17 17 17 16 15 15 16 17 17 16 15 16 15 14 14 15 13 12 14 15 16 15 9 7 8 7 8 9 8 7 7 7 7 6 5 5
12 12 12 11 11 11 11 12 12 12 12 12 13 13 14 14 15 16 17 18 17 17 17 17 15 15 16 17 16 15 16 16 15 15 15 14 14 15 15 14 13 16 16 15 15 16 17 17 16 16 16 15 16 17 17 17 15 14 15 16 16 16 16 16 16 16 16 16 13 12 14 16 17 13 7 6 7 6 7 8 7 7 7 6 6 6 5 5
11 11 11 11 11 11 11 11 11 12 12 12 13 13 13 14 15 15 17 17 17 17 16 16 16 16 16 16 15 15 17 17 14 14 15 14 15 15 16 16 14 15 16 16 16 15 16 17 16 14 13 14 15 15 15 16 16 14 13 15 16 16 17 16 15 15 15 15 14 14 15 15 13 9 6 7 7 6 7 7 7 7 6 6 6 6 6 5
10 10 10 10 10 11 11 11 11 11 12 12 13 12 13 15 15 15 16 16 17 17 16 16 16 16 16 16 16 15 16 16 15 15 15 14 15 15 15 16 14 15 17 17 17 16 15 16 15 12 12 13 13 13 14 16 16 14 13 16 15 14 16 17 14 13 13 14 14 14 15 13 11 10 7 7 7 7 7 7 7 7 6 6 6 6 6 5
10 9 10 10 10 10 10 11 11 11 12 13 13 12 13 14 15 15 16 16 16 16 16 16 16 17 16 16 16 16 16 16 15 15 15 15 15 15 15 16 14 14 17 17 17 16 16 16 14 13 15 13 10 12 14 13 14 15 15 16 14 13 15 16 15 14 13 14 14 13 15 14 15 13 8 6 8 8 7 7 7 7 6 6 7 6 6 5
10 9 10 10 10 10 10 11 12 12 13 12 11 12 12 13 14 14 15 15 15 16 16 16 16 16 16 16 16 15 16 16 15 15 15 15 16 16 16 17 14 13 15 15 17 16 15 16 15 12 13 13 11 13 15 12 12 14 14 14 14 15 16 14 14 15 14 14 14 14 14 14 15 14 10 8 9 8 7 7 7 7 7 7 7 7 6 5
10 10 10 9 9 10 10 12 13 13 12 11 10 11 12 13 14 14 15 15 15 15 15 15 16 16 15 15 16 16 15 16 15 15 16 16 16 16 16 16 15 13 13 15 16 15 14 16 15 12 11 13 13 14 15 14 13 13 13 13 13 14 15 14 14 14 14 14 14 15 15 14 15 14 13 12 9 8 8 7 7 7 7 7 7 7 6 6
9 11 10 9 9 10 11 12 12 12 11 10 10 11 11 12 13 14 14 14 15 15 14 15 15 15 15 15 15 15 15 15 15 15 15 15 16 16 15 15 15 13 12 14 15 15 15 15 14 13 11 12 14 14 15 16 15 14 14 14 14 13 13 13 13 13 14 14 14 14 14 15 14 12 13 13 9 8 9 8 7 8 7 7 7 7 6 6
9 11 10 8 9 10 11 11 11 10 9 9 10 11 12 12 13 13 14 14 14 14 14 14 15 15 15 15 14 15 15 15 14 14 15 15 15 16 14 13 15 14 13 14 15 15 15 14 14 13 12 14 15 13 12 13 14 15 15 14 14 14 13 13 13 12 13 13 14 14 14 15 13 10 11 11 9 8 9 8 8 8 8 8 7 7 6 6
10 10 9 8 9 10 11 10 9 10 9 9 11 11 12 13 12 13 13 13 13 14 13 14 14 14 14 15 15 15 15 15 15 14 14 15 15 16 13 10 11 13 14 15 14 13 13 14 14 14 13 13 13 10 9 10 12 13 13 13 13 13 14 14 14 13 12 13 13 13 13 14 11 8 9 9 9 9 8 8 9 9 9 8 7 6 6 5
10 9 8 8 8 9 10 9 9 10 10 10 11 11 12 12 12 12 13 13 13 13 13 13 13 14 14 14 14 14 15 15 15 15 14 15 14 13 11 10 10 12 14 14 13 12 13 14 14 14 13 12 12 11 10 10 11 12 12 12 12 13 13 13 13 13 12 13 13 12 13 13 11 8 8 8 8 9 8 8 9 9 8 8 7 6 6 5
8 8 7 8 8 9 9 9 9 9 9 10 10 11 11 11 12 12 12 13 13 13 13 13 13 13 14 14 14 14 14 14 14 15 14 14 13 10 9 10 11 12 14 14 14 14 14 14 13 13 13 12 12 12 12 11 12 12 12 11 11 12 12 11 11 11 11 12 13 12 12 13 11 8 8 8 8 9 8 8 8 9 9 9 7 6 6 5
8 8 7 8 8 8 9 9 10 9 9 10 10 10 11 11 11 12 12 13 13 13 13 13 13 13 13 13 13 14 14 14 14 13 13 13 12 10 9 9 11 12 12 11 12 14 14 14 13 13 12 12 12 12 12 12 12 11 11 11 10 11 11 11 11 11 10 12 12 12 12 12 10 9 9 9 8 8 9 8 7 8 9 9 8 7 5 4
9 8 7 7 8 8 8 8 8 9 9 9 9 10 10 10 11 11 12 12 13 13 13 13 12 13 13 13 13 13 13 13 13 12 12 12 11 9 9 9 10 10 10 10 11 12 13 12 12 13 13 12 13 13 12 12 12 12 12 12 11 10 10 10 11 10 11 11 11 11 12 11 10 10 9 9 8 8 9 8 8 8 8 8 7 6 4 4
9 9 8 8 7 7 8 8 8 8 9 10 10 10 10 10 10 11 11 12 12 12 13 12 12 12 12 12 12 12 13 12 12 12 12 12 11 9 8 9 9 9 9 10 10 11 12 11 11 12 12 12 12 12 11 10 12 13 12 12 11 9 9 9 9 10 11 10 10 11 11 10 11 11 10 10 9 9 9 9 9 9 9 8 6 5 4 4
8 9 8 8 8 8 8 8 8 8 8 9 10 10 10 10 10 10 11 11 11 12 12 11 12 12 12 12 12 12 12 12 12 11 11 11 10 9 9 9 9 9 9 10 9 10 12 11 11 11 11 10 10 10 10 9 11 11 11 11 11 10 9 9 9 10 10 10 10 11 10 10 11 11 10 10 10 10 10 10 9 8 7 6 5 4 4 4
7 7 7 8 8 8 8 9 9 8 8 8 8 9 9 9 9 10 10 11 11 11 11 11 11 11 12 12 12 12 11 11 11 11 11 10 10 10 10 10 9 8 9 10 9 10 11 11 10 9 10 10 8 8 8 8 9 9 10 10 10 9 9 8 9 9 9 9 9 9 8 8 10 9 9 10 10 10 10 9 7 6 6 6 5 4 4 4
6 7 7 7 7 7 8 9 9 8 8 8 8 8 9 9 9 9 10 10 10 10 11 11 11 11 11 11 12 12 12 12 12 11 11 11 10 9 10 10 10 8 9 10 9 9 10 10 8 8 9 9 7 7 7 7 7 8 8 8 8 7 8 7 8 8 7 7 8 8 7 7 8 8 8 8 8 8 8 7 6 6 6 5 5 4 4 4
5 4 5 7 7 7 7 8 8 8 8 8 8 8 9 9 9 9 10 10 10 10 11 11 11 11 10 10 10 11 11 12 12 12 11 11 11 10 10 10 10 9 9 8 8 9 9 8 7 8 9 9 7 6 7 6 6 7 7 7 6 7 8 8 7 7 7 7 7 7 6 7 8 8 7 7 7 6 6 6 6 6 4 4 4 4 4 5
4 4 4 6 8 7 7 7 8 8 8 8 8 8 9 9 9 10 10 9 9 9 9 10 11 10 9 9 9 10 10 9 9 7 7 8 8 8 8 9 9 9 9 8 8 8 8 8 8 8 9 8 6 5 6 7 7 7 8 8 7 7 7 7 7 7 7 7 7 6 7 8 8 8 7 7 7 5 5 6 6 5 3 3 4 5 5 5
Height
824 824 823 823 823 823 823 823 823 823 824 823 824 824 823 824 823 824 823 823 823 823 823 822 821 821 820 819 819 818 817 816 814 814 812 811 810 811 811 812 812 812 812 812 813 813 813 814 814 814 814 815 819 820 820 820 821 823 832 839 839 843 840 831 831 829 827 824 820 818 819 821 818 813 810 808 809 809 807 806 805 802 799 798 796 796 796 796
823 823 823 823 823 823 823 823 823 823 823 823 824 824 824 824 823 824 823 823 823 822 822 822 821 821 820 819 818 817 816 815 813 812 810 809 809 810 811 812 812 812 812 813 813 813 814 815 815 815 816 819 822 821 822 822 822 828 838 842 838 837 831 825 825 823 824 823 820 819 820 821 818 815 813 811 811 810 809 804 803 802 799 797 796 796 796 795
823 823 823 823 823 823 823 823 823 823 823 823 823 823 823 823 823 823 822 823 822 822 822 821 821 820 820 819 818 818 816 814 813 812 810 809 810 810 811 812 812 812 813 813 813 814 814 815 815 817 819 822 825 824 824 824 825 830 837 839 834 830 827 825 824 821 821 821 820 820 821 821 817 816 814 813 812 810 809 804 803 803 798 796 795 796 796 795
822 822 822 822 822 822 822 822 822 822 823 823 823 823 823 823 823 822 822 822 821 821 821 821 821 820 820 819 819 818 815 816 815 811 810 811 811 811 812 812 812 812 813 813 814 814 815 815 816 818 822 824 827 827 826 825 827 831 834 832 829 829 828 821 820 820 821 821 821 820 821 820 815 816 814 814 815 810 804 801 802 801 798 797 795 795 796 795
822 822 822 822 822 822 822 822 822 822 822 822 822 822 822 822 822 821 821 821 821 821 820 820 820 819 820 819 820 817 818 824 817 810 811 811 811 812 812 812 812 813 813 814 814 815 815 816 817 820 824 826 828 827 827 826 827 830 830 826 826 830 827 818 818 820 819 821 821 821 821 818 814 815 813 814 817 810 800 796 797 798 799 798 796 795 795 795
821 821 822 822 821 821 821 821 821 821 822 821 821 821 821 821 821 821 821 820 820 820 819 819 819 819 819 819 820 817 822 827 816 810 812 811 812 812 812 812 812 813 813 814 815 815 816 818 819 823 826 827 829 827 827 827 827 829 828 825 825 827 825 819 818 818 819 821 820 819 819 818 817 815 813 813 811 804 795 792 794 797 799 798 797 796 796 796
821 821 821 821 821 821 821 821 821 821 821 821 821 821 820 820 820 820 820 820 819 819 819 819 818 819 818 819 819 819 823 821 811 811 813 811 812 812 812 812 812 813 813 814 815 816 818 819 821 824 827 827 829 828 827 827 827 830 829 825 824 826 825 820 819 818 819 820 817 819 819 818 819 816 813 808 801 798 795 792 793 797 799 798 797 797 797 797
820 820 820 820 821 820 820 820 820 821 820 820 820 820 820 820 819 819 819 819 818 819 818 818 818 818 818 818 819 822 823 816 810 812 811 811 812 811 812 812 812 813 813 814 815 816 818 820 822 824 826 827 828 827 827 828 828 830 829 826 824 824 822 819 820 818 818 818 817 818 817 815 816 815 812 803 794 794 795 794 794 797 799 799 799 799 799 798
819 819 819 820 820 820 820 820 820 820 820 820 820 819 819 819 819 819 818 818 818 818 817 817 818 817 818 818 819 824 819 810 809 810 810 811 811 811 812 812 812 813 813 814 814 815 817 820 821 821 823 826 827 826 827 829 829 828 827 826 824 822 820 820 818 815 817 817 816 817 813 812 813 813 809 798 791 794 794 795 797 797 798 800 801 801 801 799
818 818 819 819 819 819 819 820 820 820 820 820 819 819 819 818 818 818 817 817 817 817 817 817 817 817 818 817 821 824 814 808 810 809 809 810 809 811 811 811 812 812 813 814 814 815 816 818 818 818 821 824 826 827 828 828 828 827 827 826 824 824 822 820 817 814 816 815 814 815 812 810 813 815 807 793 792 796 794 796 799 798 799 801 803 803 803 802
817 817 818 818 818 819 818 819 819 819 819 819 819 819 818 818 818 817 817 817 817 817 816 816 816 817 817 817 821 820 809 807 809 808 809 809 809 810 810 811 811 812 813 813 814 815 815 816 816 818 821 824 825 827 828 826 826 826 827 825 823 824 820 817 816 813 814 813 811 813 811 810 815 814 803 791 793 796 795 798 800 799 801 803 804 805 804 804
816 817 817 817 817 818 818 818 818 818 818 818 818 818 818 818 817 817 816 816 816 816 816 816 816 816 817 818 818 812 807 808 808 808 809 808 809 810 810 811 811 812 812 813 814 813 815 815 815 818 821 823 826 828 826 824 826 826 827 827 824 823 819 812 813 814 814 812 810 812 812 810 812 808 795 791 795 795 795 799 801 801 803 805 807 807 807 807
815 815 816 816 816 817 817 817 817 818 817 817 817 817 817 816 816 816 816 816 815 815 815 815 815 815 817 817 811 807 807 808 807 808 808 808 809 809 810 811 811 812 812 813 814 813 814 814 815 818 819 822 825 826 824 824 826 825 828 830 828 829 823 812 814 817 814 812 809 813 819 812 804 799 792 794 798 795 795 799 802 803 806 808 809 810 810 809
814 815 815 815 815 816 816 816 817 817 817 817 816 816 816 816 816 815 815 815 814 814 814 814 815 816 817 814 807 806 806 806 807 807 808 808 808 809 810 810 811 812 812 813 813 814 814 814 815 818 819 822 823 823 825 828 828 828 831 833 836 838 825 811 814 818 813 813 810 812 823 816 800 795 792 796 799 796 798 801 803 805 809 811 812 813 812 812
814 814 814 814 814 815 815 816 816 816 816 816 816 816 815 815 815 814 815 814 814 814 814 814 815 816 818 813 805 805 806 805 806 806 807 808 808 809 809 810 811 811 812 813 813 814 814 814 816 819 821 821 822 826 830 832 830 833 835 835 840 841 828 814 813 815 811 812 812 813 821 816 804 797 792 796 800 798 800 803 804 808 812 814 814 815 815 814
813 813 813 813 814 814 814 815 815 815 815 815 815 815 815 815 814 814 814 814 814 814 814 816 815 817 819 812 805 805 805 804 805 805 806 807 808 809 809 810 811 812 812 813 813 814 814 815 819 822 822 823 826 830 835 837 836 838 839 836 837 838 835 824 812 812 813 811 813 815 818 815 806 798 791 795 800 799 801 803 807 813 816 817 818 818 818 817
813 813 812 812 813 813 814 814 815 815 815 815 815 814 814 814 814 814 814 814 814 814 815 816 815 817 815 807 806 805 803 803 803 804 806 807 808 808 809 811 811 812 812 813 813 814 815 817 822 824 824 829 830 831 840 845 839 838 842 840 838 837 837 830 816 813 814 813 815 816 817 814 806 799 793 796 801 800 801 804 812 818 819 820 820 820 820 820
812 812 812 812 812 813 813 814 814 814 814 814 814 814 814 814 814 815 815 815 815 815 817 816 817 820 813 805 805 804 802 803 803 804 805 806 808 809 809 810 811 812 813 815 815 816 818 821 825 826 828 833 831 832 841 841 832 830 834 837 837 836 837 833 823 816 813 814 816 817 818 814 808 802 797 800 804 803 806 811 817 820 821 822 822 822 822 822
811 811 811 811 812 812 813 814 814 814 814 814 814 814 814 814 815 815 815 815 815 814 814 813 813 815 811 804 803 803 802 803 803 804 805 806 808 809 809 810 812 813 816 819 819 819 821 824 828 829 830 832 829 829 830 826 823 823 826 830 832 834 833 830 824 818 816 818 818 818 818 815 810 803 802 808 809 810 814 817 820 822 824 824 824 825 825 824
810 810 810 811 811 812 812 813 813 813 813 813 813 814 815 815 816 816 815 815 812 808 807 807 806 806 805 802 802 802 803 803 804 804 805 806 807 808 810 811 813 815 818 821 821 822 823 826 830 827 825 824 823 822 820 820 823 826 828 831 833 835 832 825 822 817 817 821 818 816 817 815 809 805 812 817 812 814 820 821 824 826 826 827 827 827 827 827
809 809 810 810 811 811 812 812 812 812 812 812 813 813 813 813 814 814 813 811 806 803 804 804 804 803 800 801 801 801 803 803 804 804 805 806 807 810 812 814 817 819 822 823 823 824 825 829 829 821 816 816 819 821 822 824 826 828 831 832 834 836 831 824 821 818 818 821 818 817 818 813 807 811 821 823 818 822 826 825 828 829 829 830 829 830 830 828
808 808 808 809 810 810 811 811 811 811 811 811 812 811 810 809 810 810 810 809 804 802 803 803 804 803 799 800 800 801 803 805 805 805 805 806 807 810 813 816 819 821 824 825 825 828 830 831 825 815 814 817 820 823 825 827 828 830 833 835 835 833 830 823 819 820 820 819 816 818 819 811 809 819 826 827 827 832 832 830 832 833 832 833 832 833 833 831
806 806 808 808 808 810 810 810 810 810 810 810 810 809 809 808 809 808 810 811 807 801 801 801 802 801 799 799 799 800 804 806 806 804 804 806 808 811 813 816 819 821 824 824 823 828 831 826 816 812 817 821 821 823 827 829 830 832 833 835 833 830 830 825 819 820 821 821 819 818 819 812 811 821 828 831 833 834 835 834 835 837 836 837 837 837 836 835
804 805 806 806 808 809 809 810 809 809 809 808 809 808 808 809 808 809 809 812 811 802 798 798 798 798 797 797 797 799 803 803 803 802 801 803 807 811 811 813 818 822 823 821 821 824 821 814 811 814 819 821 822 823 827 830 831 832 830 831 830 826 827 825 822 822 821 824 822 818 817 812 808 815 824 831 833 833 836 836 837 839 839 838 838 838 838 838
802 804 804 805 807 807 808 809 807 808 808 808 809 807 809 809 808 810 809 814 814 803 798 796 796 796 794 795 796 797 800 801 800 800 799 801 804 809 811 812 816 820 821 822 825 825 818 812 812 815 819 822 823 822 824 828 830 829 823 822 822 820 822 824 825 826 824 824 824 823 821 812 805 810 821 829 833 835 838 838 839 840 840 839 839 839 839 839
800 802 803 804 806 806 809 808 806 807 807 808 808 807 809 808 809 809 810 820 816 801 798 796 794 794 792 795 796 796 801 802 799 799 799 801 801 804 810 813 814 817 819 822 825 823 816 812 813 814 817 821 823 823 823 824 828 827 819 815 818 820 824 826 825 826 826 825 827 828 826 820 810 805 816 828 833 838 840 840 842 841 841 841 841 842 841 840
799 800 801 803 804 806 807 806 805 806 806 807 805 807 809 807 810 809 812 828 817 793 794 797 794 793 792 795 795 796 802 801 799 800 799 801 801 801 808 813 814 815 815 820 824 818 812 812 814 815 817 821 823 822 821 822 824 823 819 817 817 819 823 824 824 824 826 827 828 827 825 828 821 808 816 826 829 837 841 841 843 843 843 843 842 843 842 842
797 798 799 801 803 804 805 805 805 805 805 805 804 808 808 807 811 808 818 833 810 783 788 794 793 792 792 795 795 796 800 799 800 802 800 800 802 802 807 810 811 812 813 817 819 815 812 812 813 814 817 821 819 816 817 819 819 817 822 824 821 821 823 824 824 825 830 832 829 825 825 829 821 812 822 827 822 829 838 841 843 843 844 844 844 844 842 842
795 796 797 800 801 802 803 804 804 804 804 804 805 807 806 809 810 810 828 830 797 779 788 790 791 794 794 796 797 798 799 799 801 802 800 801 801 802 807 809 809 811 814 816 814 811 811 811 810 811 814 814 812 814 817 814 814 819 825 826 824 827 828 826 827 825 831 836 829 823 823 825 816 807 818 823 815 821 835 842 843 843 844 844 844 845 843 842
792 793 796 798 799 800 801 801 802 803 804 805 806 806 807 809 811 822 837 820 787 784 791 789 793 796 795 798 800 800 799 800 801 801 802 803 802 803 807 809 809 811 814 817 814 811 811 813 812 809 808 808 809 818 823 818 818 822 822 819 821 828 829 831 833 830 831 831 824 820 818 821 819 807 809 817 817 822 833 840 843 843 844 844 843 844 844 843
789 791 793 795 796 797 798 798 799 801 804 804 805 806 808 811 816 827 825 799 784 791 790 792 797 796 796 799 800 800 800 801 803 802 803 806 805 807 809 809 811 815 818 817 814 813 813 812 810 805 806 809 809 815 822 823 823 821 817 816 821 826 828 832 834 835 834 824 820 828 827 825 821 808 808 820 827 829 828 832 838 840 843 844 843 844 844 844
787 789 791 793 793 794 795 795 795 800 802 802 805 805 809 818 820 817 804 788 788 791 787 792 797 795 798 798 797 800 801 800 802 803 805 809 809 809 809 808 809 814 818 817 815 814 810 808 809 806 806 807 805 811 819 821 821 819 817 820 826 831 833 833 832 837 836 825 827 835 830 826 817 808 817 826 829 832 827 827 834 836 839 842 842 844 844 845
785 787 788 790 791 792 792 792 794 797 798 800 804 804 809 818 811 798 792 788 787 786 784 789 793 795 798 796 796 800 800 799 802 803 806 810 811 809 808 809 809 808 811 818 818 814 808 807 809 806 804 804 802 807 813 815 819 819 816 819 826 834 839 836 836 842 835 824 831 836 829 823 811 811 832 837 832 834 830 829 833 835 838 839 841 844 844 845
782 784 786 787 788 789 790 791 792 793 796 798 802 807 811 810 798 787 787 786 784 785 785 788 793 796 796 795 796 797 797 799 802 803 806 809 811 809 806 809 811 806 808 816 817 814 811 807 805 804 804 804 801 802 804 807 817 820 818 818 820 824 828 828 827 829 823 819 830 835 826 814 804 815 839 841 836 837 832 832 836 836 839 840 841 844 844 845
779 781 783 785 786 788 788 789 789 790 792 794 800 808 806 797 791 788 784 783 784 785 786 788 791 796 797 796 797 795 792 796 802 804 806 808 808 806 801 802 807 806 807 812 812 815 816 808 803 808 810 806 803 805 806 806 812 822 824 820 818 815 814 820 826 827 826 824 828 828 818 814 818 831 843 839 836 838 835 836 837 837 840 841 842 844 843 845
777 779 781 783 784 785 787 787 788 789 788 790 799 804 796 787 787 786 781 780 782 784 787 791 791 794 799 796 796 796 790 793 802 803 805 809 806 805 801 798 802 802 800 804 806 810 814 808 806 811 811 809 809 808 807 805 807 820 824 815 817 819 811 816 828 833 836 830 823 819 813 817 824 830 839 840 836 838 838 837 837 838 841 842 842 843 843 844
776 778 779 781 783 784 785 785 787 788 787 789 795 796 790 785 783 782 780 779 781 782 786 792 791 791 796 794 793 795 791 792 800 800 803 806 801 799 799 795 799 799 794 797 800 802 807 806 806 809 805 809 817 811 807 810 809 814 817 811 816 822 815 818 824 829 836 832 823 818 812 811 811 816 837 844 837 837 839 838 838 840 841 841 840 841 842 843
774 777 777 780 782 783 783 784 785 785 787 793 798 795 791 787 783 782 781 780 783 784 786 791 790 788 793 793 791 793 792 793 799 800 800 801 795 792 792 791 797 800 796 796 798 801 806 805 807 813 810 809 814 810 807 813 813 811 812 811 815 816 815 822 826 825 829 828 819 812 811 811 805 808 826 834 832 836 837 837 838 838 839 839 838 840 842 842
772 776 779 781 782 782 782 783 784 787 792 799 803 799 792 787 784 782 782 783 785 787 789 790 789 789 793 793 791 792 793 794 799 799 797 797 795 790 789 790 794 800 799 797 797 800 805 806 808 815 816 811 810 809 808 811 814 814 814 815 817 816 814 819 823 821 820 821 817 809 806 805 800 801 806 812 824 831 831 834 836 834 835 835 835 837 839 840
771 775 780 782 781 782 782 784 787 793 799 801 801 798 793 789 786 783 782 784 784 786 790 790 789 791 792 793 793 792 792 794 798 799 796 795 793 789 790 791 791 798 802 800 799 802 804 808 810 813 817 814 808 807 806 804 808 811 813 815 816 818 820 821 821 819 816 817 817 815 808 797 797 804 801 803 819 825 823 827 831 832 833 832 833 835 835 837
771 775 781 782 782 783 784 789 794 799 803 802 797 795 792 788 787 785 783 784 784 785 787 788 789 791 791 792 794 793 794 795 797 797 796 794 792 789 792 795 793 796 801 799 799 801 802 806 809 811 814 810 804 808 811 807 806 807 807 810 810 813 819 821 820 820 820 816 811 813 808 793 796 810 808 806 815 817 819 824 827 828 828 828 831 832 833 835
772 779 783 782 784 784 787 795 798 797 799 798 793 790 788 786 786 785 784 785 786 786 787 788 788 790 791 791 792 792 793 793 794 795 794 792 789 789 795 802 800 796 796 798 800 802 803 805 807 807 809 807 807 815 820 816 810 809 809 810 811 812 812 814 815 816 819 816 810 812 809 797 802 814 812 811 813 813 818 822 822 824 824 826 829 830 832 834
775 782 784 783 785 786 789 797 799 796 794 792 789 787 786 786 787 786 785 786 787 788 789 789 788 789 789 789 791 793 792 792 791 790 791 790 790 794 800 802 801 797 794 796 800 802 802 803 804 804 805 809 811 813 816 816 812 811 810 811 815 813 809 813 814 814 817 813 808 814 810 797 804 814 813 813 814 815 820 820 819 822 823 825 827 828 831 832
780 784 785 785 786 787 790 792 793 795 793 790 790 789 787 786 786 785 786 785 786 787 788 788 787 787 787 787 789 790 791 793 789 787 789 790 792 799 803 801 799 797 794 795 796 796 798 802 806 809 811 812 813 812 812 812 810 810 809 813 816 813 814 819 819 821 823 812 805 812 807 796 805 815 813 814 815 814 818 821 821 821 820 822 826 827 829 830
781 785 787 787 786 787 789 787 787 790 791 791 792 790 788 787 784 783 784 783 783 785 786 785 785 785 786 788 789 788 789 789 788 789 792 792 796 801 803 802 799 796 797 800 797 793 797 801 803 809 813 813 811 812 811 808 808 812 812 813 816 815 816 817 816 821 822 812 807 810 804 801 810 815 813 814 817 816 817 821 823 821 820 821 823 825 828 829
778 783 787 790 789 788 787 787 788 789 788 791 793 790 788 787 784 782 783 783 782 783 783 784 785 786 786 788 789 789 788 788 789 791 791 792 798 802 804 804 802 800 801 803 800 797 801 804 801 800 802 803 802 803 808 808 806 807 808 808 812 817 818 817 818 821 818 814 812 808 804 807 810 811 813 814 817 818 817 819 821 820 820 821 822 824 827 828
774 776 781 786 789 788 786 786 788 788 786 788 788 785 785 785 784 783 783 782 782 782 783 783 784 785 786 788 789 789 788 789 791 792 792 794 798 804 806 804 803 803 802 802 802 800 802 805 803 800 799 802 802 803 810 812 805 802 805 805 810 818 820 820 820 818 816 818 814 805 807 812 806 806 812 813 814 817 815 816 817 815 816 819 822 825 826 827
773 772 773 776 778 781 781 780 782 786 787 786 784 782 782 784 785 784 783 783 782 781 783 784 783 782 783 785 787 788 788 790 791 791 794 797 800 802 804 803 804 804 802 803 803 802 801 802 804 806 805 808 811 811 813 814 809 807 808 805 807 815 819 821 821 817 815 816 809 804 811 812 804 804 810 810 811 813 811 812 814 815 817 820 823 824 824 825
774 774 773 773 772 773 773 772 776 782 785 787 787 783 782 784 785 783 782 783 784 782 782 783 782 782 783 783 784 786 787 789 791 791 792 796 800 801 800 800 803 805 803 802 803 805 803 803 809 813 809 810 817 820 820 819 816 814 811 807 808 814 818 821 819 814 815 816 812 813 821 816 806 807 810 810 811 812 811 813 815 817 819 820 821 822 822 824
772 772 771 773 774 774 773 772 776 781 783 786 786 782 781 783 783 782 781 781 783 783 782 781 781 782 784 784 782 782 781 782 784 787 789 793 797 799 798 795 798 805 805 803 805 807 805 808 816 816 811 813 821 825 826 827 825 821 815 812 817 822 822 821 818 816 821 823 818 821 827 820 808 807 812 813 814 814 813 813 815 817 818 818 819 821 821 822
771 771 771 772 773 774 774 774 776 779 781 783 782 778 779 780 779 780 780 779 779 780 779 779 780 782 786 787 784 781 781 782 781 782 785 786 788 792 793 791 794 800 803 805 807 806 807 814 819 817 812 814 821 826 827 826 829 827 816 814 823 825 816 814 816 818 820 819 820 824 826 815 804 807 812 812 814 816 815 814 815 816 818 819 818 819 820 821
770 772 773 773 771 771 773 774 776 778 776 773 774 773 774 776 776 777 780 780 780 781 780 778 779 783 786 787 786 784 785 787 789 791 793 791 790 792 793 793 793 795 799 806 808 808 809 812 815 816 814 816 826 831 826 826 828 819 805 804 813 815 811 811 814 815 814 815 820 821 814 805 803 808 810 807 810 814 814 813 813 814 818 819 817 817 819 820
Wind_Speed
2 2 2 2 3 3 3 3 3 2 2 2 2 2 2 2 2 2 3 3 3 4 4 5 6 7 8 10 11 13 15 15 16 15 10 9 5 6 4 2 2 1 2 4 6 6 4 3 2 3 3 3 4 2 3 3 2 4 4 3 1 3 3 5 6 6 3 4 6 5 3 1 6 6 3 3 2 4 6 5 5 6 6 9 11 10 9 8
2 2 2 2 3 3 3 3 3 3 2 2 2 2 2 2 3 3 3 3 3 4 5 6 6 7 8 10 11 13 15 15 15 13 9 5 4 8 6 2 1 1 2 4 6 6 4 1 1 5 5 3 3 3 2 2 3 3 3 2 3 5 5 5 7 5 3 4 6 5 3 3 6 4 3 5 7 6 8 8 3 5 9 10 13 12 11 8
4 3 3 3 3 3 3 3 3 3 2 2 2 2 2 3 3 3 4 4 4 5 6 6 7 8 8 9 10 12 14 13 10 6 2 2 8 9 6 4 1 2 3 2 5 4 4 4 5 6 5 2 2 3 3 1 1 2 4 1 6 6 4 5 6 6 6 4 5 6 3 2 6 3 1 3 8 8 8 8 3 6 10 10 9 7 9 8
5 4 3 3 4 3 3 3 3 3 2 3 3 3 3 3 3 4 4 4 5 6 6 7 7 8 8 9 9 10 12 9 4 1 2 6 9 8 7 4 2 3 4 2 4 3 3 5 6 5 4 2 4 3 1 2 0 1 4 4 6 3 2 6 7 7 7 4 3 4 4 6 6 2 1 2 7 10 9 7 6 7 9 10 10 7 8 8
6 5 4 4 5 4 4 4 3 3 3 3 3 4 4 4 5 5 5 5 6 7 7 8 8 8 8 8 7 8 8 6 2 2 3 6 7 6 6 4 3 4 5 4 5 5 3 5 6 5 4 1 2 3 2 3 3 2 3 6 5 4 3 7 5 5 3 2 3 4 5 6 4 1 2 1 4 8 9 9 7 7 7 9 10 10 8 7
7 6 5 5 5 5 4 4 4 3 4 4 4 4 4 5 5 5 6 5 6 7 8 9 9 8 8 7 5 3 4 1 4 2 4 6 5 4 4 3 2 4 6 5 4 4 3 5 5 3 3 1 1 2 4 2 2 2 4 3 4 4 4 6 3 4 1 1 6 4 4 2 4 6 4 5 10 11 12 13 8 4 4 8 10 9 8 7
7 6 5 6 6 5 5 4 5 4 4 4 5 5 5 5 6 6 6 6 6 7 8 9 9 8 6 4 2 2 3 4 7 4 6 7 5 3 2 2 2 4 7 7 4 4 4 5 2 3 4 2 2 4 4 2 2 2 4 5 4 3 5 7 5 6 4 4 8 3 4 4 3 7 3 6 13 12 13 13 9 4 4 7 7 7 8 6
8 7 6 6 6 6 6 5 5 5 5 5 5 5 5 6 6 7 7 7 7 7 8 8 8 6 4 2 1 3 2 7 8 6 8 7 7 5 4 4 4 5 8 8 6 6 5 4 4 4 3 1 4 3 1 1 2 3 5 4 3 2 6 7 6 8 7 6 7 3 6 7 7 4 3 12 17 10 9 9 8 6 8 7 7 7 7 7
8 8 7 7 6 6 6 6 6 5 5 5 5 5 6 6 7 7 7 7 7 7 7 7 6 4 3 2 5 2 4 6 5 5 6 8 9 8 7 6 5 6 7 7 6 7 5 5 5 4 4 3 4 2 0 1 2 4 5 3 4 6 6 7 7 8 6 4 2 3 11 8 4 2 3 14 15 6 4 4 7 8 9 7 7 7 7 8
8 8 7 7 6 6 6 5 5 5 5 5 5 5 5 6 6 7 6 6 6 6 6 5 5 3 4 3 6 1 5 4 3 3 4 6 7 7 7 6 5 6 7 5 6 7 5 5 4 4 4 2 3 2 1 3 3 4 3 4 5 7 8 4 7 8 4 5 4 6 12 7 2 1 3 10 6 3 6 7 7 8 7 6 6 6 8 10
8 7 7 7 6 6 5 5 5 4 4 4 4 5 5 6 6 6 6 6 5 5 5 4 4 4 5 4 5 4 5 3 4 3 2 4 5 6 7 6 5 6 7 4 5 7 4 4 5 5 2 2 3 1 2 4 2 2 1 5 7 7 8 6 7 8 3 4 5 7 7 5 2 1 7 9 2 6 6 7 7 8 6 6 6 7 8 9
8 7 8 7 7 6 5 5 4 4 4 4 4 5 5 5 5 6 6 5 5 4 5 4 3 5 4 2 4 9 7 4 4 3 3 5 5 6 5 4 4 5 6 4 4 6 4 5 7 4 2 3 1 1 2 3 1 0 2 4 8 8 8 9 5 3 0 2 4 6 3 6 1 6 11 8 6 7 7 7 7 7 6 6 6 6 7 9
9 8 8 7 7 6 5 4 4 4 4 4 4 5 5 6 6 6 6 5 5 4 4 3 4 7 4 0 6 11 11 8 6 4 5 6 6 5 4 4 4 4 4 4 4 4 4 6 8 5 2 5 1 1 2 3 2 2 2 1 6 7 7 8 1 2 2 2 4 3 3 7 6 11 12 6 5 7 8 7 6 5 5 5 6 6 6 9
8 8 8 8 7 6 5 4 4 4 4 4 5 5 6 6 6 5 5 5 5 4 4 3 6 6 3 3 5 7 10 9 8 8 7 8 7 5 4 3 3 3 3 4 5 5 4 4 6 3 1 3 1 0 3 6 3 2 2 0 2 2 5 8 2 0 4 2 2 3 2 6 9 12 12 4 3 5 8 6 5 4 5 5 5 6 6 8
9 9 9 8 7 6 5 4 3 3 4 5 5 6 6 6 5 4 4 4 3 3 2 3 7 5 1 5 5 4 7 7 8 10 9 8 7 5 5 6 5 5 5 6 6 5 4 4 5 3 1 1 4 2 3 5 3 2 2 3 3 2 5 10 6 4 3 3 2 4 2 6 9 12 12 3 6 7 7 5 3 5 6 6 5 6 6 6
10 10 10 9 7 6 5 3 3 3 4 5 5 6 6 5 3 2 2 1 1 2 3 4 6 4 0 3 2 2 5 6 7 9 9 8 7 5 6 8 6 7 7 6 6 4 3 4 2 1 1 1 4 4 3 4 4 3 0 4 3 3 3 7 6 2 3 1 3 1 1 5 6 10 13 5 8 7 6 3 4 6 6 6 5 6 6 6
11 11 10 8 7 6 4 3 3 3 5 5 5 5 5 3 1 1 2 4 5 5 4 3 4 2 2 2 1 2 4 6 5 6 8 8 6 5 7 7 5 7 7 5 4 3 3 4 1 0 2 2 3 5 3 3 5 3 1 3 4 4 3 4 5 3 2 3 1 1 2 6 8 10 14 7 8 7 5 4 6 6 6 6 5 6 6 7
13 12 10 9 7 6 5 3 3 4 4 4 5 4 2 1 3 3 4 6 6 5 3 1 3 0 3 2 2 2 1 3 4 5 8 7 6 6 6 5 5 7 6 4 2 2 2 3 2 1 3 2 2 5 2 5 5 4 3 3 4 4 4 5 5 4 5 4 3 3 4 8 10 12 13 8 8 7 6 6 6 6 6 6 6 6 6 7
14 12 10 9 8 7 5 3 3 4 4 4 3 1 2 3 2 2 3 4 3 2 1 3 4 2 3 3 3 0 3 3 4 6 7 6 7 7 6 6 6 6 4 1 1 1 1 3 4 1 1 2 5 7 9 10 8 7 5 4 4 4 5 6 7 5 2 4 6 6 7 7 9 11 9 9 8 8 7 6 6 6 6 6 6 6 6 7
15 13 12 11 9 7 5 3 2 3 4 4 1 4 3 2 1 2 2 2 5 5 2 5 6 2 3 3 2 3 3 3 3 4 6 8 10 8 5 4 6 4 2 3 2 1 3 3 2 4 6 8 10 12 12 8 4 4 3 3 4 5 6 6 6 6 1 1 6 6 5 6 9 9 7 8 8 9 7 6 7 6 5 5 6 6 6 6
16 15 13 11 9 7 5 4 2 2 5 5 4 4 2 3 2 2 2 4 9 9 5 6 7 6 6 3 4 5 3 1 1 2 7 8 9 7 1 3 4 1 1 3 2 2 3 5 6 9 11 10 8 9 9 5 3 2 3 3 4 5 7 7 6 6 1 3 5 3 3 8 9 4 6 6 7 8 6 6 6 6 6 5 6 7 6 5
17 16 14 12 10 8 6 4 2 3 5 5 6 4 2 3 3 1 1 2 8 9 8 6 3 7 9 4 5 4 2 1 2 1 7 7 5 5 1 4 4 3 1 3 2 1 1 4 10 13 10 5 2 4 5 5 5 4 2 2 5 4 4 7 6 5 2 3 4 2 2 9 7 3 6 6 7 5 5 7 6 5 6 6 6 6 5 6
18 17 15 13 11 8 5 4 3 4 5 6 6 5 3 3 4 3 3 0 5 4 5 5 4 6 7 5 6 6 3 4 3 4 10 10 2 3 4 4 5 3 2 4 5 4 3 6 12 12 5 3 4 3 6 3 3 3 3 3 5 3 1 4 5 5 3 1 2 2 3 7 4 4 6 6 5 6 7 8 7 6 6 6 6 5 6 7
19 18 16 14 11 7 4 3 4 4 6 7 6 6 6 5 5 4 2 1 3 4 4 5 4 4 5 3 5 7 4 4 3 4 11 12 4 3 5 5 5 3 4 8 8 6 7 7 5 3 4 6 7 3 6 5 2 4 6 6 5 5 6 7 4 5 4 2 2 1 3 5 3 2 3 4 4 6 6 7 8 6 5 5 5 6 7 6
20 19 16 15 11 6 3 4 5 7 6 5 6 7 6 5 5 4 2 2 3 5 3 3 2 3 4 3 5 7 2 2 3 3 9 11 6 4 2 2 4 4 6 6 5 5 9 6 3 3 3 5 5 5 5 6 3 4 6 10 11 9 9 7 3 5 4 3 3 4 3 5 4 1 4 3 4 5 5 6 7 6 5 5 6 6 6 5
21 19 17 16 11 7 3 4 6 9 6 4 6 7 7 6 5 4 3 3 4 4 1 2 2 4 5 3 2 5 3 2 2 2 6 7 5 4 2 1 1 4 6 4 2 3 5 3 3 5 4 5 5 5 5 7 4 3 5 9 11 8 6 5 2 2 0 3 3 3 1 5 5 4 4 5 5 4 4 6 5 4 5 5 5 5 4 5
21 20 19 16 12 10 5 1 7 10 4 4 9 8 6 7 6 3 2 3 5 3 3 1 0 4 5 2 1 5 3 3 1 3 3 4 2 3 2 3 1 2 4 3 1 3 3 1 2 4 4 5 4 4 5 7 6 3 4 4 6 6 6 6 5 4 3 3 3 3 1 3 5 4 3 6 6 5 4 5 4 4 4 4 4 4 4 4
22 21 20 18 15 14 9 2 6 9 4 6 11 9 7 7 5 2 3 1 4 1 3 1 0 2 1 0 2 4 2 1 3 1 1 3 1 3 1 5 6 4 2 5 3 4 2 1 2 6 5 4 5 4 7 9 4 6 3 6 6 6 5 5 5 2 1 1 4 4 0 2 5 4 1 4 4 2 3 2 2 2 3 3 3 3 3 3
23 22 21 19 15 15 15 10 7 7 6 10 12 9 9 8 4 5 3 3 1 2 1 1 2 1 1 2 2 2 1 1 2 2 2 3 1 3 2 5 6 4 1 3 5 5 1 3 5 7 5 5 5 2 7 9 4 4 5 6 5 5 5 4 5 3 2 1 5 6 4 2 5 4 1 2 3 3 3 3 2 2 1 2 2 2 2 3
25 24 22 19 17 17 18 16 14 10 8 13 12 10 10 6 3 3 3 4 0 1 1 1 2 1 3 4 1 1 1 1 0 1 3 1 2 5 2 2 5 4 1 3 3 5 3 1 2 4 4 6 4 3 3 5 3 4 5 5 6 5 4 4 2 3 2 3 6 8 8 5 4 5 2 3 2 4 6 4 3 3 1 2 1 0 1 3
26 26 24 21 20 20 14 12 18 16 12 14 13 11 8 3 3 4 6 2 1 0 2 1 1 2 4 5 2 1 1 0 1 2 2 1 2 4 2 1 3 3 3 4 3 4 5 2 2 2 2 4 5 4 2 2 4 5 4 4 3 4 4 4 4 3 1 6 5 4 4 5 4 4 2 3 4 2 8 8 8 7 5 4 3 1 0 3
28 26 25 23 22 23 16 12 20 22 17 17 14 8 4 1 2 5 3 1 0 2 3 2 1 3 4 2 2 3 3 1 1 3 4 2 2 3 2 3 3 2 2 4 3 4 4 4 3 2 1 4 6 4 2 4 5 5 4 4 3 3 3 2 3 0 3 6 3 2 1 2 6 4 2 3 5 4 5 8 11 10 8 6 5 3 1 3
29 27 26 25 24 24 21 16 21 24 21 18 11 4 3 4 6 5 4 2 2 2 2 3 2 4 5 2 1 3 2 1 2 2 2 3 2 4 3 3 5 2 1 3 2 2 3 5 2 1 2 2 6 5 2 1 1 4 5 4 4 2 0 3 3 2 4 5 3 2 1 2 5 2 1 4 5 5 3 6 8 9 9 7 5 4 2 2
29 28 27 25 23 21 18 16 21 26 24 16 7 2 4 6 4 6 7 4 1 1 1 3 3 4 4 2 3 3 2 2 3 4 2 3 2 3 4 4 4 3 3 2 2 2 1 5 2 4 2 1 5 5 5 5 3 3 4 5 4 4 4 4 4 3 4 4 2 2 1 2 3 1 3 4 4 3 3 6 6 6 6 5 4 3 2 1
25 24 23 21 18 14 11 13 19 26 23 13 4 4 8 7 2 4 6 3 1 1 2 3 4 4 1 2 3 3 3 2 2 4 2 2 3 3 3 5 5 4 4 3 2 1 2 5 5 3 2 2 3 2 4 6 3 2 3 4 2 4 4 2 3 5 3 3 2 2 2 3 3 1 4 2 3 5 5 5 6 6 4 4 4 4 3 3
22 21 19 16 16 13 11 10 13 18 15 9 5 7 6 3 2 3 3 3 2 3 4 2 3 4 2 2 2 2 1 1 3 3 2 2 3 4 4 4 6 8 6 4 3 1 2 4 5 2 2 2 2 2 2 3 3 2 2 3 4 4 5 1 2 1 3 2 4 2 2 3 1 1 4 3 4 4 3 4 6 6 5 5 4 5 4 4
20 16 12 10 11 11 10 9 8 9 6 4 6 7 2 1 2 2 1 2 2 3 4 2 1 3 3 2 2 2 1 1 2 2 2 2 3 4 4 3 3 9 8 3 2 3 3 4 5 0 1 1 0 2 3 2 3 5 2 5 3 2 4 3 1 2 2 3 4 1 3 3 2 1 2 2 3 4 4 5 6 5 5 5 6 5 5 5
17 9 6 6 8 9 9 9 7 4 3 2 4 4 1 1 2 1 1 2 3 3 3 3 3 2 3 3 3 2 2 2 2 2 2 2 3 4 5 2 2 4 5 2 1 2 3 2 6 1 1 3 3 3 2 4 3 4 3 3 3 2 1 2 2 2 2 4 4 2 3 3 4 4 2 5 9 9 8 7 7 7 7 6 6 6 6 5
14 6 3 3 7 7 8 9 8 5 1 2 3 3 2 3 3 2 1 2 2 3 2 3 2 0 2 3 3 1 2 3 3 3 2 2 3 2 3 2 2 1 3 3 4 1 2 1 4 2 1 3 4 2 2 2 2 3 1 1 2 2 3 2 2 3 3 3 4 5 4 3 5 5 8 11 13 12 12 10 9 9 8 8 7 6 6 6
6 4 1 1 6 8 10 10 7 3 3 3 3 2 1 2 4 4 1 1 1 1 1 3 2 1 2 2 2 2 1 2 4 3 2 2 2 2 1 2 3 1 1 2 3 0 2 1 3 4 3 1 1 2 5 5 2 1 1 1 1 0 1 1 1 2 3 3 3 5 6 5 4 3 8 11 11 13 14 12 9 8 9 8 7 7 7 6
1 3 1 1 8 13 12 8 3 4 3 3 3 2 1 1 1 4 2 2 2 0 1 3 3 2 2 2 2 2 1 2 4 3 3 3 2 2 1 1 4 4 2 3 2 2 1 2 3 1 1 2 4 4 4 6 5 5 4 4 4 3 2 2 4 1 1 2 3 4 8 7 3 2 4 6 9 13 13 11 9 9 9 9 7 7 7 7
3 2 1 3 13 16 10 4 3 3 2 3 3 2 2 2 1 2 1 2 1 1 1 1 3 3 3 3 3 3 3 2 3 3 3 4 4 4 0 2 2 4 4 3 3 3 3 3 2 2 2 5 6 3 2 5 4 5 3 3 3 3 4 4 7 3 1 2 2 2 6 6 2 2 3 4 7 10 10 11 10 9 9 8 7 6 6 6
3 2 1 8 17 13 6 4 4 4 4 3 2 2 1 1 2 2 2 1 1 2 1 1 3 4 5 4 4 4 4 4 4 5 4 3 4 3 1 2 1 3 4 2 2 1 2 2 1 3 3 2 4 4 2 1 3 2 2 2 3 3 3 4 5 2 1 3 2 2 6 5 1 2 1 3 5 7 8 9 9 7 7 6 6 6 6 6
3 2 2 7 15 9 3 5 5 5 6 2 1 3 2 1 3 3 4 4 3 3 3 3 3 4 5 4 4 5 5 5 5 5 4 3 2 0 3 3 1 2 1 2 2 2 2 1 2 1 4 4 4 3 3 3 1 2 2 1 2 3 3 2 1 1 1 5 5 5 7 4 2 4 4 3 6 9 9 8 6 6 5 5 5 5 6 6
3 2 2 4 10 5 2 3 2 4 6 4 3 4 2 2 3 4 6 6 4 4 3 3 2 4 4 3 3 5 5 6 5 2 2 2 1 1 3 4 1 2 1 1 1 2 3 3 3 3 6 8 5 3 2 2 1 1 2 3 3 4 5 2 1 2 3 3 4 6 6 3 3 4 4 1 6 8 7 5 4 4 4 4 4 5 6 6
3 1 1 2 4 3 1 2 2 2 4 5 4 4 6 6 3 1 5 6 4 4 3 2 1 2 3 4 4 5 6 6 4 2 2 3 2 2 2 2 2 2 1 2 2 2 2 2 3 6 8 8 5 5 4 3 3 2 3 4 4 4 4 3 3 3 4 1 3 7 3 1 4 4 3 3 3 6 6 5 4 5 5 5 5 5 5 5
2 2 4 4 2 4 3 2 3 2 2 4 4 3 7 9 4 1 4 4 4 5 4 2 3 4 5 5 5 6 5 4 3 3 2 3 1 2 2 1 3 2 2 2 2 3 4 2 4 6 7 6 3 5 4 4 4 6 5 6 6 4 5 5 4 4 3 1 7 8 3 2 7 6 6 6 5 5 7 6 6 6 6 5 3 4 5 6
1 1 3 3 2 4 6 6 7 7 5 4 3 1 4 8 6 4 4 2 2 5 5 3 5 10 8 6 5 5 4 4 4 3 3 2 2 0 1 0 0 2 2 2 2 3 4 4 3 4 5 3 2 2 3 4 3 3 5 8 8 6 6 6 6 6 6 6 10 5 4 6 9 6 6 8 7 7 7 7 6 5 4 3 4 6 7 7
1 0 1 0 1 3 6 5 8 11 10 6 3 3 4 7 8 6 2 2 2 4 6 7 7 9 8 7 7 6 5 5 4 3 3 2 2 3 1 1 1 2 3 3 1 2 3 2 1 3 3 2 1 2 1 3 2 4 7 11 9 6 6 6 8 10 9 9 10 5 2 8 10 6 6 7 6 6 6 6 5 4 4 5 6 8 8 7
2 1 1 1 1 0 2 3 6 8 8 7 6 6 4 6 8 6 2 4 5 3 5 10 9 6 7 8 9 9 8 7 6 5 6 5 3 3 3 3 2 2 2 2 0 1 1 1 1 2 0 2 2 1 3 1 1 4 12 13 4 1 4 9 11 9 4 6 9 7 6 11 11 6 5 5 5 5 6 7 6 5 6 6 7 8 8 7
2 1 2 2 2 2 1 2 5 5 5 7 9 7 6 8 9 6 2 4 5 4 5 10 9 5 4 6 10 11 6 5 6 6 6 7 6 4 3 3 5 5 2 2 1 0 1 1 2 3 1 3 2 2 3 3 2 6 16 13 4 4 9 10 7 6 6 8 9 6 6 11 8 1 2 5 5 6 7 7 6 5 5 7 8 8 7 7
3 3 3 2 2 3 3 3 4 5 5 7 10 9 8 8 6 7 4 2 1 2 4 6 7 4 3 6 10 9 4 5 3 1 2 3 2 3 2 2 5 5 5 4 2 1 3 3 2 2 3 2 1 3 4 5 3 8 12 8 8 10 13 9 5 7 9 8 6 7 9 9 5 1 3 7 6 6 7 6 6 6 6 6 7 7 7 6
Wind_Direction
226 211 211 211 215 218 222 232 233 237 243 248 254 266 278 277 279 290 296 304 310 316 321 322 328 332 335 337 336 336 332 329 325 317 301 296 277 196 194 242 292 269 192 166 164 157 123 95 89 60 61 51 12 344 357 4 54 52 75 103 234 200 202 191 187 196 185 277 274 311 12 215 287 304 314 325 349 309 308 299 262 275 269 249 262 285 309 305
271 248 228 220 222 223 228 236 239 236 240 251 262 271 276 277 278 286 288 301 309 311 319 322 329 330 335 337 335 337 332 328 322 311 299 290 191 174 179 185 274 251 181 177 182 166 124 142 88 62 47 36 353 352 4 349 65 83 111 126 231 202 214 196 185 203 203 254 268 296 321 224 255 276 346 315 298 325 319 296 249 278 286 280 278 286 305 300
283 275 253 241 241 241 236 234 240 243 244 251 268 285 290 290 290 297 297 306 311 315 320 321 325 327 333 334 337 341 334 331 322 309 324 137 154 159 155 149 166 184 191 193 194 175 125 156 131 80 45 40 339 2 27 3 65 147 124 151 244 214 235 238 203 215 228 244 276 294 305 250 257 254 336 306 301 311 294 280 271 287 294 299 295 299 309 297
277 273 257 250 252 250 247 241 243 253 264 266 280 294 300 308 311 309 310 317 318 318 317 318 321 323 328 330 339 340 340 346 316 238 117 142 145 143 141 153 178 183 202 191 172 163 102 119 105 71 65 43 332 5 19 283 264 169 140 191 231 188 239 255 226 230 238 217 227 278 330 307 286 237 214 336 321 306 283 255 222 251 284 300 307 318 308 286
269 262 248 247 249 247 249 249 254 261 271 279 289 296 304 312 315 318 319 321 318 315 313 314 314 317 321 325 336 341 1 18 281 218 159 162 148 148 155 165 175 184 198 177 157 148 104 98 81 55 70 65 335 31 266 255 118 160 218 213 207 154 235 266 244 236 229 190 239 295 315 299 307 312 219 215 265 273 278 268 235 235 269 291 300 311 315 295
265 255 240 246 248 245 249 256 266 267 272 282 287 295 305 308 312 317 320 321 314 309 307 306 307 309 311 315 326 353 56 25 259 228 208 190 170 170 167 177 172 196 199 176 152 138 103 72 67 73 72 25 184 185 253 267 106 214 274 270 233 187 231 280 289 261 250 325 282 282 289 316 355 307 240 210 235 243 265 275 278 279 282 292 300 312 319 306
265 257 240 246 246 243 248 253 259 261 269 279 289 297 301 305 309 311 316 316 304 299 297 298 300 300 303 305 312 38 90 245 260 250 237 209 200 209 199 227 202 214 207 185 159 132 105 82 107 149 97 18 199 209 249 319 46 195 266 296 271 212 225 264 287 280 284 276 266 268 318 310 284 285 282 252 251 244 258 278 298 339 16 330 328 331 323 327
264 256 242 246 250 246 246 251 260 267 276 285 296 298 296 301 302 304 310 305 297 295 292 291 293 296 295 247 150 29 1 248 259 258 247 231 231 244 245 241 221 222 206 200 188 149 128 131 175 162 111 252 189 186 239 6 22 192 235 275 288 261 246 270 288 282 282 266 262 285 290 261 223 248 309 272 268 261 259 285 317 360 37 24 11 2 352 11
259 251 244 246 251 252 252 260 272 278 286 291 294 297 295 297 299 305 305 300 301 297 294 292 291 285 253 172 105 32 268 235 257 265 248 242 245 245 238 231 225 217 195 203 195 161 170 181 195 188 176 202 173 190 194 143 267 212 213 266 300 297 288 297 290 276 278 256 238 284 280 271 236 256 272 260 267 295 317 336 358 15 28 33 35 27 24 27
256 250 240 239 246 255 257 266 279 285 289 288 292 296 294 295 298 302 302 303 306 299 300 294 282 255 215 155 101 198 249 223 263 272 248 239 237 231 227 228 225 208 184 188 187 168 176 194 188 159 153 147 156 188 132 161 216 195 198 259 263 284 290 274 265 273 285 262 225 239 272 286 306 311 269 262 264 22 9 1 14 26 30 40 46 38 34 32
254 250 235 232 237 245 252 262 272 276 279 282 290 290 288 295 297 301 305 304 304 302 298 284 267 227 193 146 132 210 249 242 271 276 240 228 219 219 219 225 219 200 188 175 194 195 195 197 155 117 138 177 157 172 241 202 172 156 281 296 280 303 298 260 263 281 295 281 212 187 255 300 10 206 240 258 354 43 8 8 23 33 39 51 49 38 36 31
248 245 234 229 233 241 247 252 257 263 273 280 283 287 289 291 292 298 303 302 303 298 287 279 240 197 162 113 198 227 243 244 269 274 228 205 194 201 197 203 203 200 204 179 189 202 209 203 149 132 214 163 140 296 233 216 127 147 34 325 302 343 319 280 283 296 157 258 192 154 288 315 266 225 241 266 0 4 1 30 34 33 44 53 49 43 39 27
244 235 231 230 236 242 241 244 259 268 275 278 282 289 290 294 298 300 303 301 300 290 281 269 218 182 148 296 237 234 243 248 257 250 210 187 176 179 180 198 203 202 213 183 161 154 169 191 159 157 176 126 193 240 97 37 33 297 21 15 305 355 319 283 318 36 354 245 192 146 298 294 263 249 258 290 356 352 3 24 26 34 53 53 46 46 39 28
247 232 229 232 233 228 228 243 261 271 279 284 289 294 295 303 303 301 304 298 294 285 274 237 193 166 146 255 249 241 245 245 243 225 198 190 179 177 196 206 194 174 167 155 143 118 115 160 146 123 104 120 196 268 28 5 7 311 319 356 333 340 279 292 296 276 322 300 160 131 209 265 275 276 280 299 51 18 9 8 22 51 67 53 41 44 36 29
253 239 235 232 222 215 221 235 252 273 286 290 297 300 304 309 304 305 302 290 292 266 228 173 169 149 82 275 260 248 241 237 233 222 210 204 194 197 201 178 150 131 128 135 132 116 106 125 125 109 251 357 50 49 342 345 6 23 291 299 335 202 262 307 296 194 227 313 75 125 195 269 275 282 286 322 70 38 14 2 49 72 63 51 37 35 31 21
252 246 241 226 210 209 216 224 250 280 290 296 304 307 309 309 301 301 281 254 127 138 125 136 158 139 20 272 247 227 228 226 230 223 212 206 206 204 172 155 135 124 129 127 126 124 94 82 82 117 165 29 68 79 30 359 331 353 221 254 273 224 270 316 307 205 193 334 28 128 224 281 280 283 288 340 52 32 15 15 70 74 56 52 42 33 33 20
249 248 241 218 204 209 212 222 256 285 291 298 311 314 314 305 269 190 140 125 116 106 92 127 153 131 277 240 212 266 234 215 219 208 196 194 199 182 148 135 119 119 113 103 119 113 46 44 23 299 50 53 102 97 51 315 281 311 350 235 253 231 238 297 299 320 41 76 358 280 213 259 275 284 289 331 29 11 17 59 80 72 58 56 47 40 37 27
245 245 230 211 207 208 209 227 266 290 290 304 321 317 319 170 162 138 136 131 107 78 54 104 131 140 276 234 220 255 178 184 186 167 176 177 174 163 135 121 117 110 84 52 63 66 14 16 54 30 19 37 122 117 169 232 219 224 225 223 258 248 235 259 267 298 10 16 310 284 250 261 276 280 287 328 15 16 36 79 84 67 61 55 44 44 38 32
241 238 222 214 212 208 210 224 268 293 294 310 319 335 102 114 146 155 154 145 124 112 214 213 160 158 245 253 245 200 88 125 147 155 162 154 155 142 106 101 102 99 88 44 323 8 101 48 60 140 245 198 184 176 201 217 202 208 221 207 225 247 249 247 254 268 336 333 295 270 263 268 274 278 300 339 11 41 55 77 75 61 61 53 47 45 35 38
236 229 220 218 216 213 214 223 267 295 299 303 229 131 114 98 34 294 225 198 214 198 175 200 196 210 268 255 184 139 123 121 134 161 160 153 150 130 85 65 61 62 110 158 218 309 111 142 183 208 218 212 208 206 211 220 201 199 215 223 223 236 264 266 269 275 204 273 275 261 273 278 268 282 330 348 13 41 50 74 70 59 58 48 50 44 34 40
233 227 222 222 221 220 215 221 255 278 293 284 190 153 173 173 138 269 237 247 244 230 234 224 208 244 260 220 160 148 124 76 30 137 159 160 147 141 78 44 79 44 246 158 152 33 111 180 220 224 222 221 216 210 220 240 243 227 220 252 264 240 259 268 267 285 218 177 261 305 318 280 269 305 360 9 38 33 28 70 69 61 63 50 49 43 32 37
231 228 224 226 226 222 215 219 245 271 284 258 199 194 215 171 147 155 143 276 266 239 236 246 230 256 258 238 208 168 98 283 297 258 169 153 136 176 199 76 133 204 232 127 105 23 186 211 234 234 225 229 238 179 192 226 228 231 209 228 263 247 278 285 279 312 19 173 261 323 288 274 285 43 39 33 60 47 32 60 56 53 60 46 43 36 30 35
228 226 224 227 226 217 209 219 241 258 255 223 202 202 187 144 124 110 100 118 289 268 221 227 217 238 254 256 217 180 179 219 243 254 181 153 127 191 144 120 172 174 140 180 177 175 207 235 238 234 204 203 251 171 145 180 216 206 183 186 249 251 309 281 284 331 4 184 268 244 240 276 288 87 66 47 70 71 55 60 55 49 57 52 46 35 34 35
225 225 222 225 223 209 205 248 248 230 222 209 203 193 168 145 135 128 91 70 290 284 235 219 201 204 228 245 188 171 195 205 199 233 181 160 140 153 159 164 165 158 194 205 194 197 233 245 234 193 145 185 233 224 155 166 232 234 208 202 232 240 220 229 276 333 344 354 359 10 312 296 268 158 105 75 70 65 52 57 55 42 48 56 52 44 38 35
224 225 223 225 220 197 212 281 244 199 186 184 188 182 162 154 153 136 73 29 288 294 282 227 193 194 193 146 160 170 172 205 211 220 178 167 150 135 189 167 145 202 215 196 193 234 255 246 147 122 141 163 204 237 191 165 202 273 232 209 218 229 227 234 304 358 2 333 343 25 341 294 312 310 162 126 59 52 39 48 56 40 37 46 46 42 33 33
225 225 226 227 214 189 219 282 219 186 179 200 188 173 162 159 158 141 76 31 278 272 258 201 178 180 174 133 157 146 109 259 249 119 150 166 154 123 161 173 104 218 199 162 175 237 261 256 153 180 171 149 189 249 224 166 152 278 246 206 211 218 215 218 187 105 203 257 295 32 246 265 316 317 192 144 87 72 50 47 53 39 36 43 43 38 25 28
226 226 228 226 207 194 209 252 187 176 171 215 188 169 166 161 161 164 73 3 278 213 139 221 229 152 172 192 170 135 151 249 91 79 121 143 157 85 130 197 156 207 182 127 166 235 227 27 104 180 155 152 196 251 222 160 130 247 252 155 166 184 188 188 167 169 225 256 319 2 149 258 291 280 208 132 105 74 59 54 45 37 37 39 42 40 32 24
226 227 229 225 211 205 215 214 175 184 202 186 172 166 161 159 160 112 80 269 275 118 116 256 134 119 149 70 77 117 190 222 111 226 354 104 151 66 123 209 177 188 181 134 205 257 192 139 189 170 147 181 210 216 183 154 153 243 211 110 129 152 154 141 130 156 300 10 307 301 124 268 266 270 346 111 124 92 103 121 81 63 52 46 44 37 39 35
227 228 228 227 220 217 228 239 212 212 215 171 162 166 155 156 148 74 81 224 257 69 83 105 128 67 33 81 46 64 57 25 126 241 1 85 117 69 159 204 154 163 201 135 211 257 239 212 195 153 153 206 208 192 173 165 195 225 130 96 68 73 80 78 103 112 36 22 250 233 185 221 268 280 312 147 181 200 171 169 166 135 95 77 56 21 28 37
227 228 227 225 222 221 227 235 232 222 193 170 163 157 148 142 106 100 216 230 117 109 149 113 165 144 90 112 7 333 121 27 43 23 30 63 14 37 121 165 102 127 324 2 254 256 296 290 178 148 172 192 155 97 160 166 157 137 106 68 36 33 40 38 61 83 46 275 246 222 197 190 266 287 229 181 212 186 161 160 186 182 187 177 152 347 4 25
227 229 227 222 223 221 213 221 226 214 186 173 160 142 138 93 75 181 219 222 51 176 132 126 196 125 126 142 169 206 135 43 14 92 102 98 34 39 73 114 75 69 356 325 290 301 325 316 254 242 178 136 103 79 73 68 90 111 93 69 47 340 13 24 357 41 170 253 266 257 206 174 228 265 233 248 298 203 170 169 176 176 183 195 186 191 316 20
228 230 230 227 228 223 213 220 219 206 187 173 158 137 132 137 206 210 216 101 192 207 155 171 192 154 167 159 161 174 147 152 177 132 143 140 148 170 171 171 158 60 332 251 264 336 301 245 261 298 217 134 110 85 28 14 50 96 106 96 90 321 351 347 308 307 229 253 279 288 156 181 237 241 240 279 304 278 210 173 166 167 172 185 192 194 167 35
226 228 228 227 226 220 218 221 210 195 180 167 154 107 116 191 218 196 179 191 199 179 126 133 124 141 150 136 219 188 135 179 182 154 146 114 149 228 252 201 170 138 307 208 218 335 302 296 315 160 268 179 141 145 185 257 123 145 150 135 137 155 200 268 270 269 271 274 282 266 178 267 269 267 265 272 292 291 225 152 154 160 163 173 181 179 135 60
223 223 223 220 217 212 208 203 194 185 174 158 141 100 160 205 219 162 177 209 200 135 88 106 103 110 134 166 230 190 149 220 167 137 118 92 119 246 253 226 182 131 106 143 195 184 220 302 258 181 251 216 176 180 164 145 143 175 161 135 151 160 171 225 225 218 264 286 296 280 216 209 226 282 290 273 306 346 85 118 129 140 151 156 146 140 134 121
210 207 205 200 192 186 176 176 181 178 168 148 127 184 194 205 189 153 186 194 172 155 74 76 99 109 170 273 267 206 186 230 145 121 133 153 177 206 208 209 187 149 128 160 225 167 171 259 263 258 288 144 181 218 123 112 128 202 127 109 168 182 168 216 210 174 194 293 290 221 220 217 187 273 317 329 32 45 79 112 130 145 147 136 142 164 177 183
182 176 176 172 166 160 151 152 167 175 167 140 156 202 214 212 164 177 186 143 154 152 119 72 89 121 237 283 269 241 175 141 142 140 183 194 203 208 213 223 188 174 163 158 205 179 153 266 283 308 335 98 167 216 119 122 183 164 122 181 219 175 133 133 267 106 89 263 264 192 225 283 305 333 342 26 69 79 107 141 154 168 162 153 182 196 191 194
162 157 155 148 153 159 149 135 149 174 161 129 183 206 228 264 188 190 178 108 112 114 125 170 186 167 208 230 236 232 159 142 150 158 204 221 225 198 204 257 189 187 193 161 209 212 159 267 288 96 163 301 210 146 58 48 132 123 168 217 206 129 95 98 241 334 34 245 269 188 199 245 243 255 341 43 148 175 193 189 182 186 181 188 205 204 200 200
147 133 120 134 161 162 142 128 122 119 88 97 223 242 235 235 246 211 155 96 76 65 102 182 221 196 174 192 241 223 165 189 169 168 193 218 242 183 167 214 165 198 223 152 167 249 126 258 296 352 167 300 358 83 45 359 68 122 185 201 122 151 178 95 171 232 241 245 279 277 233 226 207 204 192 194 196 193 198 200 197 197 198 207 212 207 207 201
133 113 73 161 173 155 138 127 97 77 81 191 220 246 219 231 270 266 135 76 80 85 113 210 229 176 147 172 212 212 177 185 170 182 195 185 232 204 151 172 154 245 264 154 161 228 109 184 286 321 276 306 9 72 172 277 358 57 103 18 54 160 173 151 163 181 200 237 270 277 282 264 227 198 182 197 194 182 186 194 197 200 201 206 204 198 200 197
117 107 56 192 167 147 133 118 92 105 209 215 199 217 226 233 271 275 255 127 165 142 170 211 197 170 194 179 197 218 203 181 168 185 215 187 212 240 204 158 144 159 339 102 140 134 83 167 247 299 317 291 191 207 188 189 189 124 165 228 277 176 146 226 237 135 154 200 235 268 274 261 248 192 183 197 189 180 186 185 186 200 205 208 205 195 197 196
78 106 33 50 146 140 124 110 122 181 200 227 213 210 230 191 266 291 277 153 179 267 109 172 182 185 195 200 219 204 159 177 179 187 228 218 201 216 244 83 149 162 105 87 146 197 146 159 195 259 329 192 226 248 197 186 174 159 184 205 196 169 135 244 258 212 147 204 196 241 268 266 254 203 194 192 181 184 185 172 176 200 205 208 209 199 199 197
81 110 341 124 144 141 127 132 199 189 191 221 208 197 207 175 165 262 272 97 164 253 30 178 204 193 195 209 203 183 179 207 195 191 218 217 204 204 229 27 125 144 121 137 205 205 149 117 148 222 213 209 244 277 188 185 155 137 180 188 160 151 143 205 242 232 191 240 172 186 264 267 250 220 228 209 186 180 175 169 178 199 206 209 209 202 201 200
89 114 40 144 152 151 145 179 199 202 220 228 219 239 233 164 179 215 206 154 182 188 205 238 201 202 224 214 187 188 207 214 197 199 218 216 208 220 313 1 160 117 105 154 207 196 117 104 167 266 296 309 303 326 10 99 102 117 235 151 141 175 157 190 229 193 163 237 214 233 255 256 323 336 272 193 166 156 169 181 182 193 211 213 206 202 197 192
107 97 40 163 173 175 176 191 194 207 219 214 203 246 281 211 193 188 188 201 190 163 191 224 202 212 226 195 179 199 202 211 217 211 208 197 191 203 22 6 246 156 133 196 194 192 211 150 126 257 304 320 323 336 350 347 51 183 240 228 188 182 124 95 234 129 204 228 212 235 251 250 334 3 30 105 148 159 177 191 185 187 208 214 207 209 201 186
115 85 30 181 193 201 201 188 175 199 210 214 228 231 243 258 225 189 184 199 200 166 183 237 212 199 203 169 181 207 202 218 235 219 164 178 247 346 17 359 317 184 213 288 211 177 192 178 144 181 240 252 249 225 232 275 259 206 246 250 216 176 161 179 200 192 232 224 199 231 253 281 324 349 11 68 163 174 188 206 221 219 216 220 220 214 200 182
130 135 111 153 217 245 229 143 119 181 194 196 227 225 207 223 267 204 184 204 218 189 194 253 178 158 201 177 186 221 223 222 215 162 157 182 227 297 331 2 45 126 135 44 46 73 117 187 197 200 229 242 229 219 207 154 161 214 241 236 217 177 157 143 137 194 225 238 247 243 236 336 295 278 282 266 193 195 213 225 241 241 228 227 229 217 196 185
132 171 164 148 196 239 233 194 184 200 178 181 203 204 202 214 235 215 194 207 212 199 218 243 174 197 216 178 189 226 223 208 187 164 174 179 192 282 297 68 79 54 46 59 25 76 110 231 229 203 236 247 192 207 205 159 187 205 208 228 222 168 139 151 185 208 170 163 256 247 163 186 253 235 220 238 234 227 237 240 241 245 246 237 217 195 189 192
149 163 186 154 148 208 214 208 198 204 211 204 202 161 196 208 208 205 201 188 196 201 213 235 209 211 207 172 184 219 202 200 214 188 163 156 153 185 330 3 68 5 49 62 354 88 133 236 226 176 238 249 143 202 189 158 216 231 219 236 232 201 181 185 211 217 191 217 255 255 148 208 248 231 197 216 219 216 228 235 237 247 254 231 189 184 193 193
128 50 261 337 46 202 208 190 182 201 209 201 216 232 205 200 204 209 176 131 223 219 204 222 225 209 198 179 183 210 201 192 216 211 169 173 175 163 176 251 266 11 69 96 8 86 141 229 186 148 233 228 158 304 91 142 253 276 256 248 242 234 216 199 219 226 217 234 262 277 238 243 254 236 203 211 212 214 234 250 256 251 224 205 192 191 194 189
137 174 183 95 37 268 227 161 160 196 206 195 219 231 201 196 204 205 166 171 202 212 200 222 226 197 193 196 199 218 213 180 194 210 175 172 206 190 193 209 171 76 58 110 96 328 166 186 100 103 251 273 276 358 74 108 229 263 263 254 227 117 245 232 234 232 223 251 261 268 273 266 261 233 203 215 208 213 247 259 259 246 211 191 190 193 192 187
112 38 81 136 186 175 171 164 158 184 203 199 217 218 201 213 203 180 200 213 191 182 197 215 220 202 200 214 217 228 220 172 204 222 181 181 204 193 193 197 157 143 148 156 157 344 171 175 62 84 189 256 265 127 113 63 41 276 268 258 184 173 240 241 229 206 202 231 247 255 259 260 262 209 181 228 208 201 230 238 236 234 207 185 187 191 190 191
115 24 50 117 197 181 167 162 160 188 209 205 213 214 207 215 185 159 197 257 140 187 212 199 194 181 191 221 228 229 185 131 152 170 130 139 114 104 127 148 136 144 161 162 135 87 148 155 115 139 201 235 87 118 100 56 7 274 265 238 189 214 240 248 238 220 210 204 213 229 239 251 271 332 255 255 235 210 221 221 215 215 203 196 195 187 187 199